STARLINK-1967, 47568

Orbit data source: Space-Track

STARLINK-1967, 47568 is a payload satellite owned by SpaceX/Seattle (US) in LEO that was launched on Thu, 04 Feb 2021 UTC via an FALCON 9 launch vehicle from the Air Force Eastern Test Range (AFETR). Payload-class satellites include a variety of spacecraft equipped with specific instruments for various scientific and technological missions. These include communications satellites like Starlink; space stations such as the ISS; scientific satellites like the Hubble; Earth observation satellites from companies like Planet Labs, Umbra, and HawkEye 360; GPS; miniature CubeSats for education and research; and military/defense satellites.

Loading next visibility...
Identifier
47568, 2021-009W
Orbit
LEO
Country
Flag of USUS
Related business
Manufacturer
SpaceX/Seattle
Mission
Partially operational Commercial Communications
Bus & Motor
STARLINK, Unknown motor
Mass
260 kg wet, ~248 kg dry
Launch date (UTC)
2021-02-04 (5 years ago)
Launch vehicle
FALCON 9
Launch site
Air Force Eastern Test Range (AFETR)
Object type
Payload
Rocket body
Debris
Shape & HBR
Box + 1 Pan, 10.1 m
Radar Cross Section
13.562 m², Large (>1 m²)

Expand to show TLE details & history
Last TLE update: 2 days ago

TLE from 2 days ago
0 STARLINK-1967
1 47568U 21009W   26171.50003471  .00229331  00000-0  79401-3 0  9993
2 47568  53.0403 213.9462 0004031  25.3375 165.0692 15.88336414  5947
Epoch: 2026-06-20T12:00Z
TLE epoch observation values (Epoch: 2026-06-20T12:00:02.998Z)
Latitude
-8.44041°
Longitude
-48.4057°
Altitude
311.938 km
Speed
7.72 km/s
True Right ascension
02h 41m 16s
True Declination
-8° 23' 14"
Sunlit
Object was in daylight at epoch
Visualization orbit readout
Latitude
Unknown
Longitude
Unknown
Altitude
Unknown
Speed
Unknown
Apparent Right ascension
Unknown
Apparent Declination
Unknown
Sunlit
N/A
Visualization observer readout
Local Sidereal Time
21:38:28
Azimuth
Unknown
Elevation
Unknown
Doppler factor
Unknown
Orbital elements
Apogee altitude
309.924 km
Perigee altitude
304.534 km
Semi-major axis
6,685.366 km
Eccentricity
0.0004
Inclination
53.0403°
RAAN
213.9462°
Arg. of periapsis
25.3375°
True anomaly
165.0811°
Mean anomaly
165.0692°
Eccentric anomaly
165.07515°
Mean motion
3.97059 °/min
Orbital period
90.67 mins
BSTAR
0.00079401
Loading maneuver chart data...
Computing Atmospheric mass density...

Documentation

Showing up to 5 results
|